K6GMW Weather Reports


time (UTC)temp
F
wind
direction
speed
knots
gust
knots
rain 1hr
in
rain 24hr
in
rain mn
in
humidity
%
barometer
mb
20260506182538 60 6 7.0 8.7 0.00 0.04 0.04 90 1014.1
20260506182035 60 0 6.1 7.8 0.00 0.04 0.04 90 1014.2
20260506181533 60 337 4.3 9.6 0.00 0.04 0.04 90 1014.7
20260506181029 60 355 4.3 7.8 0.00 0.04 0.04 90 1014.6
20260506180526 60 14 7.8 9.6 0.00 0.04 0.04 90 1014.3
20260506180022 60 357 5.2 8.7 0.00 0.04 0.04 91 1014.6
20260506175519 60 21 7.8 7.8 0.00 0.04 0.04 91 1014.5
20260506175015 59 14 5.2 6.1 0.00 0.04 0.04 91 1014.6
20260506174514 60 348 3.5 7.8 0.00 0.04 0.04 91 1014.1
20260506174010 59 45 2.6 6.1 0.00 0.04 0.04 91 1014.0
20260506173508 59 30 3.5 5.2 0.00 0.04 0.04 90 1014.5
20260506173004 60 356 2.6 3.5 0.00 0.04 0.04 91 1014.8
20260506172502 59 20 4.3 5.2 0.00 0.04 0.04 90 1014.8
20260506171958 59 10 5.2 5.2 0.00 0.04 0.04 89 1015.1
20260506171455 59 303 1.7 4.3 0.00 0.04 0.04 89 1015.3
20260506170953 59 12 1.7 6.1 0.00 0.04 0.04 90 1015.6
20260506170449 60 348 1.7 3.5 0.00 0.04 0.04 91 1015.7
20260506165948 59 327 4.3 5.2 0.00 0.04 0.04 91 1016.0
20260506165446 59 333 1.7 4.3 0.00 0.04 0.04 91 1016.1
20260506164942 59 313 2.6 6.1 0.00 0.04 0.04 91 1015.9
20260506164439 58 266 4.3 6.1 0.00 0.04 0.04 91 1016.0
20260506163937 58 303 7.0 7.8 0.00 0.04 0.04 90 1016.1
20260506163431 59 318 5.2 5.2 0.00 0.04 0.04 90 1016.0
20260506162926 59 280 3.5 7.0 0.00 0.04 0.04 90 1016.1
20260506162425 59 283 3.5 5.2 0.00 0.04 0.04 89 1016.0
20260506161922 59 289 3.5 6.1 0.00 0.04 0.04 90 1015.7
20260506161420 59 290 4.3 5.2 0.00 0.04 0.04 89 1015.6
20260506160917 59 264 2.6 6.1 0.00 0.04 0.04 89 1015.5
20260506160414 59 308 2.6 4.3 0.00 0.04 0.04 89 1015.2
20260506155912 59 359 3.5 7.8 0.00 0.04 0.04 89 1015.0
20260506155409 59 347 6.1 8.7 0.00 0.04 0.04 88 1015.0
20260506153531 59 330 3.5 6.1 0.00 0.04 0.04 87 1014.3
20260506153028 59 317 7.8 8.7 0.00 0.04 0.04 87 1014.4
20260506152525 59 344 4.3 6.1 0.00 0.04 0.04 86 1014.5
20260506152023 59 276 4.3 5.2 0.00 0.04 0.04 86 1014.4
20260506151520 60 304 5.2 7.8 0.00 0.04 0.04 85 1014.4
20260506151018 60 287 6.1 7.8 0.00 0.04 0.04 85 1014.5
20260506150514 60 293 2.6 5.2 0.00 0.04 0.04 85 1014.4
20260506150011 59 272 4.3 6.1 0.00 0.04 0.04 86 1014.2
20260506145507 59 315 7.0 9.6 0.00 0.04 0.04 85 1014.0
20260506145005 59 308 4.3 7.8 0.00 0.04 0.04 85 1013.8
20260506144501 59 308 2.6 5.2 0.00 0.04 0.04 85 1013.9
20260506143959 59 318 5.2 5.2 0.00 0.04 0.04 84 1014.0
20260506143456 59 321 6.1 7.8 0.00 0.04 0.04 83 1014.0
20260506142955 60 305 3.5 5.2 0.00 0.04 0.04 83 1013.9
20260506142452 60 311 3.5 7.8 0.00 0.04 0.04 83 1014.0
20260506141950 59 266 3.5 5.2 0.00 0.04 0.04 84 1013.8
20260506141448 59 331 4.3 7.0 0.00 0.04 0.04 83 1013.6
20260506140946 59 325 4.3 9.6 0.00 0.04 0.04 84 1013.7
20260506140443 59 320 7.0 7.8 0.00 0.04 0.04 84 1013.5
20260506135939 59 265 7.0 11.3 0.00 0.04 0.04 84 1013.6
20260506135437 59 330 7.0 7.8 0.00 0.04 0.04 84 1013.6
20260506134932 59 305 5.2 9.6 0.00 0.04 0.04 84 1013.4
20260506134429 59 351 3.5 10.4 0.00 0.04 0.04 84 1013.4
20260506133926 59 3 7.0 10.4 0.00 0.04 0.04 83 1013.4
20260506133423 59 328 3.5 7.8 0.00 0.04 0.04 84 1013.4
20260506132920 59 345 7.0 10.4 0.00 0.04 0.04 83 1013.6
20260506132417 60 0 5.2 10.4 0.00 0.04 0.04 84 1013.2
20260506131914 60 329 2.6 6.1 0.00 0.04 0.04 85 1013.0
20260506131410 60 330 5.2 12.2 0.00 0.04 0.04 85 1013.4
20260506130908 60 286 7.0 9.6 0.00 0.04 0.04 85 1013.2
20260506130404 60 342 6.1 9.6 0.00 0.04 0.04 85 1013.0
20260506125902 60 309 5.2 9.6 0.00 0.04 0.04 85 1012.9
20260506125400 60 1 5.2 8.7 0.00 0.04 0.04 85 1013.0
20260506124858 60 331 7.0 7.8 0.00 0.04 0.04 86 1012.9
20260506124355 60 343 4.3 8.7 0.00 0.04 0.04 86 1012.5
20260506123853 60 292 5.2 7.8 0.00 0.04 0.04 86 1012.5
20260506123351 61 298 8.7 9.6 0.00 0.04 0.04 86 1012.4
20260506122848 61 319 5.2 6.1 0.00 0.04 0.04 86 1012.5
20260506122344 61 276 5.2 7.8 0.00 0.04 0.04 85 1012.0
20260506121843 61 265 3.5 5.2 0.00 0.04 0.04 86 1012.2
20260506121340 61 333 2.6 6.1 0.00 0.04 0.04 86 1011.9
20260506120837 61 268 3.5 4.3 0.00 0.04 0.04 85 1012.0
20260506120334 61 290 2.6 4.3 0.00 0.04 0.04 85 1012.0
20260506115831 61 266 2.6 2.6 0.24 0.04 0.04 84 1011.8
20260506115330 61 293 1.7 3.5 0.24 0.04 0.04 84 1011.7
20260506114827 61 322 1.7 3.5 0.00 0.00 0.00 84 1011.6
20260506114325 61 317 1.7 6.1 0.00 0.00 0.00 84 1011.8
20260506113823 61 324 2.6 5.2 0.00 0.00 0.00 84 1011.5
20260506113320 62 277 3.5 4.3 0.00 0.00 0.00 84 1011.4
20260506112817 62 321 2.6 5.2 0.00 0.00 0.00 84 1011.1
20260506112314 62 307 2.6 5.2 0.00 0.00 0.00 84 1011.2
20260506111811 62 284 3.5 5.2 0.00 0.00 0.00 84 1011.1
20260506111309 62 329 2.6 5.2 0.00 0.00 0.00 84 1010.9
20260506110807 62 279 0.0 1.7 0.00 0.00 0.00 85 1011.0
20260506110304 62 358 0.9 3.5 0.00 0.00 0.00 84 1010.8
20260506105800 62 353 1.7 2.6 0.00 0.00 0.00 84 1010.7
20260506105257 62 333 2.6 2.6 0.00 0.00 0.00 84 1010.8
20260506104755 62 330 2.6 5.2 0.00 0.00 0.00 84 1010.6
20260506104252 62 332 2.6 5.2 0.00 0.00 0.00 84 1010.7
20260506103749 62 348 1.7 5.2 0.00 0.00 0.00 85 1010.7
20260506103247 62 334 1.7 3.5 0.00 0.00 0.00 86 1010.8
20260506102744 62 339 3.5 7.8 0.00 0.00 0.00 85 1010.7
20260506102242 62 312 3.5 7.8 0.00 0.00 0.00 84 1010.5
20260506101739 62 355 6.1 8.7 0.00 0.00 0.00 83 1010.6
20260506101235 63 322 5.2 5.2 0.00 0.00 0.00 84 1010.5
20260506100733 63 317 5.2 7.0 0.00 0.00 0.00 84 1010.3
20260506100231 63 3 2.6 3.5 0.00 0.00 0.00 85 1010.2
20260506095730 63 298 3.5 4.3 0.00 0.00 0.00 85 1010.2
20260506095226 64 298 4.3 6.1 0.00 0.00 0.00 84 1010.1
20260506094723 64 314 5.2 7.8 0.00 0.00 0.00 84 1010.1
20260506094221 64 304 5.2 9.6 0.00 0.00 0.00 83 1009.8
20260506093720 65 280 5.2 6.1 0.00 0.00 0.00 83 1010.2
20260506093216 65 254 3.5 3.5 0.00 0.00 0.00 84 1010.0
20260506092714 65 320 3.5 7.0 0.00 0.00 0.00 83 1010.0
20260506092211 65 311 7.8 8.7 0.00 0.00 0.00 82 1009.7
20260506091709 66 278 5.2 6.1 0.00 0.00 0.00 82 1009.7
20260506091206 66 280 7.8 9.6 0.00 0.00 0.00 81 1009.7
20260506090704 66 289 7.8 8.7 0.00 0.00 0.00 81 1009.5
20260506090200 67 296 5.2 11.3 0.00 0.00 0.00 80 1009.8
20260506085657 68 318 6.1 8.7 0.00 0.00 0.00 81 1009.7
20260506085153 68 308 7.0 7.8 0.00 0.00 0.00 81 1009.6
20260506084650 68 296 4.3 9.6 0.00 0.00 0.00 81 1009.4
20260506084147 69 294 10.4 10.4 0.00 0.00 0.00 81 1009.5
20260506083644 70 331 4.3 8.7 0.00 0.00 0.00 81 1009.5
20260506083142 71 16 3.5 7.0 0.00 0.00 0.00 82 1009.3
20260506082638 71 302 9.6 11.3 0.00 0.00 0.00 83 1009.2
20260506082134 73 303 5.2 9.6 0.00 0.00 0.00 83 1009.3
20260506081632 75 229 4.3 7.8 0.00 0.00 0.00 90 1009.2
20260506081129 75 213 7.0 8.7 0.00 0.00 0.00 90 1009.0
20260506080627 75 201 5.2 6.1 0.00 0.00 0.00 90 1008.9
20260506080123 75 192 4.3 6.1 0.00 0.00 0.00 90 1009.0
20260506073107 75 195 5.2 7.8 0.00 0.00 0.00 90 1008.8
20260506072604 75 188 5.2 5.2 0.00 0.00 0.00 90 1008.9
20260506072102 75 177 4.3 5.2 0.00 0.00 0.00 90 1008.8
20260506071559 75 170 5.2 6.1 0.00 0.00 0.00 90 1008.8
20260506071056 75 200 4.3 6.1 0.00 0.00 0.00 90 1009.0
20260506070553 75 194 3.5 5.2 0.00 0.00 0.00 90 1008.9
20260506062033 75 171 2.6 4.3 0.00 0.00 0.00 89 1009.1
20260506061529 75 160 2.6 7.0 0.00 0.00 0.00 89 1009.1
20260506061027 75 144 3.5 6.1 0.00 0.00 0.00 89 1009.1
20260506060525 75 167 5.2 5.2 0.00 0.00 0.00 89 1009.5
20260506050954 76 166 3.5 3.5 0.00 0.00 0.00 87 1008.9
20260506050452 76 176 1.7 3.5 0.00 0.00 0.00 87 1008.8
20260506044942 76 170 2.6 5.2 0.00 0.00 0.00 85 1009.0
20260506044440 76 170 2.6 3.5 0.00 0.00 0.00 85 1008.9
20260506043937 77 174 3.5 4.3 0.00 0.00 0.00 84 1008.8
20260506043434 77 189 1.7 3.5 0.00 0.00 0.00 84 1008.9
20260506042932 77 192 2.6 5.2 0.00 0.00 0.00 84 1009.0
20260506042431 77 192 3.5 3.5 0.00 0.00 0.00 84 1008.7
20260506041929 77 184 3.5 3.5 0.00 0.00 0.00 83 1008.7
20260506041426 77 188 2.6 3.5 0.00 0.00 0.00 82 1008.4
20260506040923 77 189 3.5 4.3 0.00 0.00 0.00 82 1008.4
20260506040421 77 176 2.6 4.3 0.00 0.00 0.00 82 1008.6
20260506035916 77 191 4.3 6.1 0.00 0.00 0.00 82 1008.3
20260506035415 77 199 3.5 7.8 0.00 0.00 0.00 82 1008.3
20260506034911 77 191 7.0 8.7 0.00 0.00 0.00 82 1008.1
20260506034408 77 155 3.5 4.3 0.00 0.00 0.00 83 1007.9
20260506033905 77 171 2.6 8.7 0.00 0.00 0.00 83 1007.6
20260506033402 77 163 3.5 4.3 0.00 0.00 0.00 83 1007.8
20260506032859 77 176 2.6 3.5 0.00 0.00 0.00 82 1007.6
20260506032356 77 137 4.3 5.2 0.00 0.00 0.00 83 1007.5
20260506031853 77 153 3.5 5.2 0.00 0.00 0.00 83 1007.6
20260506031350 77 170 1.7 3.5 0.00 0.00 0.00 83 1007.6
20260506030848 77 165 3.5 4.3 0.00 0.00 0.00 82 1007.6
20260506030346 77 173 2.6 3.5 0.00 0.00 0.00 82 1007.5
20260506025842 77 157 3.5 7.0 0.00 0.00 0.00 82 1007.5
20260506025338 77 170 3.5 5.2 0.00 0.00 0.00 82 1007.6
20260506024835 77 137 3.5 3.5 0.00 0.00 0.00 82 1007.4
20260506024332 78 188 1.7 5.2 0.00 0.00 0.00 81 1007.6
20260506023829 78 184 2.6 5.2 0.00 0.00 0.00 81 1007.4
20260506023325 78 181 2.6 5.2 0.00 0.00 0.00 81 1007.0
20260506022822 77 160 2.6 6.1 0.00 0.00 0.00 81 1006.9
20260506022320 77 132 3.5 5.2 0.00 0.00 0.00 81 1006.8
20260506021818 77 149 3.5 5.2 0.00 0.00 0.00 81 1007.1
20260506021314 78 168 1.7 2.6 0.00 0.00 0.00 81 1007.2
20260506020811 78 170 2.6 3.5 0.00 0.00 0.00 79 1007.6
20260506020309 79 176 3.5 4.3 0.00 0.00 0.00 78 1007.5
20260506015807 79 204 2.6 2.6 0.00 0.00 0.00 78 1007.6
20260506015306 79 200 2.6 4.3 0.00 0.00 0.00 78 1007.4
20260506014800 79 209 3.5 4.3 0.00 0.00 0.00 78 1007.3
20260506014257 78 205 5.2 5.2 0.00 0.00 0.00 79 1007.3
20260506013754 78 190 1.7 3.5 0.00 0.00 0.00 79 1007.0
20260506013251 79 174 2.6 3.5 0.00 0.00 0.00 78 1007.1
20260506012748 79 185 4.3 5.2 0.00 0.00 0.00 77 1007.1
20260506012245 79 202 3.5 3.5 0.00 0.00 0.00 77 1007.1
20260506011742 80 179 1.7 5.2 0.00 0.00 0.00 76 1007.1
20260506011238 80 184 2.6 3.5 0.00 0.00 0.00 76 1007.0
20260506010737 80 169 3.5 4.3 0.00 0.00 0.00 75 1007.1
20260506010233 80 225 0.9 2.6 0.00 0.00 0.00 74 1007.0
20260506005731 80 206 3.5 3.5 0.00 0.00 0.00 74 1007.0
20260506005227 81 197 2.6 3.5 0.00 0.00 0.00 74 1006.8
20260506004723 81 181 1.7 3.5 0.00 0.00 0.00 74 1006.6
20260506004221 81 194 3.5 4.3 0.00 0.00 0.00 73 1006.4
20260506003717 81 187 2.6 5.2 0.00 0.00 0.00 72 1006.4
20260506003214 81 189 2.6 4.3 0.00 0.00 0.00 72 1006.2
20260506002709 82 229 2.6 3.5 0.00 0.00 0.00 71 1006.6
20260506002206 82 172 3.5 6.1 0.00 0.00 0.00 71 1006.1
20260506001701 82 177 1.7 6.1 0.00 0.00 0.00 70 1006.4
20260506001159 82 210 5.2 7.8 0.00 0.00 0.00 70 1006.3
20260506000656 82 187 3.5 6.1 0.00 0.00 0.00 70 1006.3
20260506000154 82 203 5.2 9.6 0.00 0.00 0.00 70 1006.3
20260505235651 83 198 6.1 8.7 0.00 0.00 0.00 69 1006.4
20260505235149 83 169 5.2 9.6 0.00 0.00 0.00 69 1006.2
20260505234645 83 174 5.2 9.6 0.00 0.00 0.00 69 1006.2
20260505234142 83 186 3.5 6.1 0.00 0.00 0.00 69 1006.1
20260505233639 84 186 4.3 6.1 0.00 0.00 0.00 68 1006.2
20260505233137 84 163 3.5 4.3 0.00 0.00 0.00 69 1006.4
20260505232634 84 184 2.6 6.1 0.00 0.00 0.00 67 1006.4
20260505232132 84 241 7.0 8.7 0.00 0.00 0.00 67 1006.3
20260505231628 84 231 7.0 8.7 0.00 0.00 0.00 66 1006.1
20260505231127 84 197 3.5 8.7 0.00 0.00 0.00 66 1006.1
20260505230625 85 215 4.3 10.4 0.00 0.00 0.00 65 1006.0
20260505230120 86 225 3.5 7.8 0.00 0.00 0.00 65 1006.1
20260505225617 86 199 3.5 7.8 0.00 0.00 0.00 65 1005.9
20260505225114 86 210 4.3 6.1 0.00 0.00 0.00 64 1006.1
20260505224610 86 194 3.5 6.1 0.00 0.00 0.00 65 1006.1
20260505224108 85 213 5.2 8.7 0.00 0.00 0.00 65 1005.9
20260505223605 85 173 5.2 7.0 0.00 0.00 0.00 65 1006.1
20260505223101 84 229 6.1 7.8 0.00 0.00 0.00 66 1006.1
20260505222557 83 243 7.0 10.4 0.00 0.00 0.00 67 1005.9
20260505222054 83 200 5.2 13.0 0.00 0.00 0.00 66 1005.8
20260505221551 84 190 4.3 9.6 0.00 0.00 0.00 66 1005.8
20260505221047 83 217 5.2 8.7 0.00 0.00 0.00 67 1005.9
20260505220545 83 179 8.7 13.9 0.00 0.00 0.00 66 1006.1
20260505220042 84 178 5.2 11.3 0.00 0.00 0.00 66 1005.9
20260505215540 85 171 7.0 11.3 0.00 0.00 0.00 66 1006.1
20260505215038 85 192 9.6 13.0 0.00 0.00 0.00 65 1006.1
20260505214536 85 185 9.6 13.0 0.00 0.00 0.00 65 1006.1
20260505214032 85 196 6.1 9.6 0.00 0.00 0.00 65 1006.3
20260505213530 84 185 2.6 11.3 0.00 0.00 0.00 67 1006.2
20260505213026 83 153 5.2 12.2 0.00 0.00 0.00 69 1006.3
20260505212523 83 198 4.3 8.7 0.00 0.00 0.00 69 1006.3
20260505212020 83 219 2.6 11.3 0.00 0.00 0.00 68 1006.5
20260505211517 84 190 7.0 10.4 0.00 0.00 0.00 66 1006.4
20260505211014 83 182 5.2 8.7 0.00 0.00 0.00 68 1006.4
20260505210510 83 211 9.6 13.0 0.00 0.00 0.00 67 1006.5
20260505210007 83 176 7.0 10.4 0.00 0.00 0.00 67 1006.6
20260505205506 83 164 6.1 13.0 0.00 0.00 0.00 67 1006.5
20260505205002 83 178 7.0 10.4 0.00 0.00 0.00 68 1006.7
20260505204500 82 214 5.2 16.5 0.00 0.00 0.00 68 1006.7
20260505203957 82 179 6.1 15.6 0.00 0.00 0.00 69 1006.6
20260505203453 82 193 6.1 13.0 0.00 0.00 0.00 68 1006.8
20260505202950 82 198 6.1 12.2 0.00 0.00 0.00 68 1006.9
20260505202447 82 168 2.6 12.2 0.00 0.00 0.00 68 1006.7
20260505201942 82 170 11.3 16.5 0.00 0.00 0.00 68 1006.7
20260505201440 82 223 4.3 11.3 0.00 0.00 0.00 68 1006.9
20260505200938 82 175 7.0 20.9 0.00 0.00 0.00 69 1006.8
20260505200435 82 176 9.6 14.8 0.00 0.00 0.00 68 1006.9
20260505195930 83 193 5.2 10.4 0.00 0.00 0.00 67 1007.0
20260505195428 82 180 7.8 13.0 0.00 0.00 0.00 69 1007.2
20260505194925 82 212 10.4 13.0 0.00 0.00 0.00 68 1007.1
20260505194423 82 170 7.0 11.3 0.00 0.00 0.00 69 1007.1
20260505193922 82 184 6.1 12.2 0.00 0.00 0.00 69 1007.1
20260505193420 82 175 4.3 11.3 0.00 0.00 0.00 69 1007.1
20260505192918 82 184 7.8 11.3 0.00 0.00 0.00 67 1007.1
20260505192416 82 208 7.0 7.0 0.00 0.00 0.00 69 1007.2
20260505191913 82 219 5.2 13.0 0.00 0.00 0.00 69 1007.1
20260505191412 82 202 7.8 9.6 0.00 0.00 0.00 69 1007.1
20260505190908 82 165 7.8 11.3 0.00 0.00 0.00 69 1007.1
20260505190404 81 205 5.2 13.0 0.00 0.00 0.00 70 1007.3
20260505185859 82 184 7.8 13.9 0.00 0.00 0.00 68 1007.2
20260505185356 82 179 2.6 13.0 0.00 0.00 0.00 68 1007.4
20260505184852 82 184 6.1 11.3 0.00 0.00 0.00 69 1007.2
20260505184349 82 192 7.8 13.9 0.00 0.00 0.00 67 1007.3
20260505183846 82 176 9.6 12.2 0.00 0.00 0.00 67 1007.4
20260505183343 81 175 3.5 9.6 0.00 0.00 0.00 72 1007.4
20260505182840 81 196 7.8 12.2 0.00 0.00 0.00 69 1007.6